Location: ????????
(55.7667°N, 37.4833°E)
Time: 13:35:43
(UTC+00:00)

Cosmos 1315 Rocket - Pass Details

Date: 19 May 2025
Orbit: 498 x 525 km, 81.2° (Epoch: 19 June)

Event Time Altitude Azimuth Distance (km) Brightness Sun altitude
Exits shadow 19:20:13 10° 181° (S) 1,799 4.9 -9.7°
Reaches altitude 10° 19:20:18 10° 181° (S) 1,769 4.9 -9.7°
Maximum altitude 19:24:09 63° 100° (E) 592 2.8 -10.0°
Drops below altitude 10° 19:28:01 10° 20° (NNE) 1,776 6.0 -10.2°
Sets 19:30:10 0° 17° (NNE) 2,666 7.1 -10.4°
